Wind_Speed
40 41 40 38 34 31 30 31 33 34 35 36 36 37 37 37 38 38 37 35 34 34 35 36 36 37 37 37 37 37 36 36 36 36 35 33 31 29 28 27 26 25 25 25 25 26 27 28 29 29 29 29 28 28 28 28 28 27 27 26 26 25 24 23 22 22 22 22 23 22 21 20 19 19 19 19 19 19 19 18 18 17 17 16 16 16
40 41 40 38 34 32 32 33 34 35 36 36 37 37 37 38 39 40 40 39 37 36 37 37 38 38 38 37 37 37 37 37 38 37 36 34 32 30 29 28 27 26 25 25 25 26 27 28 29 30 29 29 29 29 29 28 28 27 26 26 25 24 23 23 22 22 22 23 23 23 22 21 20 19 18 18 19 19 19 19 18 18 17 17 16 16
40 40 40 38 35 33 33 34 35 36 37 37 37 37 37 38 40 42 42 42 40 39 38 39 39 39 38 38 38 37 37 38 38 37 36 34 32 31 30 29 28 27 26 25 25 26 27 29 29 30 30 29 29 29 29 29 28 27 26 25 24 24 23 23 22 22 22 22 23 23 23 21 20 19 19 18 18 19 19 19 18 18 18 18 17 17
41 40 40 38 37 35 35 35 36 37 37 38 38 38 38 39 40 42 43 43 42 41 41 41 40 40 39 38 38 38 38 38 38 37 36 35 33 32 31 30 29 28 27 26 26 27 28 29 30 30 30 29 29 29 29 29 28 27 26 25 24 23 23 23 22 22 22 22 23 23 23 22 21 20 19 18 18 18 19 19 19 18 18 18 18 17
42 41 41 40 38 37 36 36 36 37 38 38 39 39 39 40 40 40 41 42 42 42 42 42 41 40 39 38 38 37 37 38 38 37 36 35 34 32 32 31 31 30 28 27 27 27 28 29 30 30 30 30 30 30 30 29 28 27 26 25 24 23 23 22 22 22 22 22 22 23 23 23 22 21 20 20 19 18 18 19 19 19 18 18 18 18
42 42 42 41 40 38 36 36 36 37 38 39 40 40 40 40 39 39 40 41 42 43 43 43 42 40 39 38 37 37 38 38 38 37 37 36 34 33 32 32 32 31 29 28 27 28 28 29 29 30 30 30 30 30 30 29 28 27 25 24 24 23 23 22 22 22 22 22 22 22 23 23 22 22 21 20 20 19 19 19 19 19 19 19 18 18
43 43 43 43 41 38 36 35 36 37 38 39 40 40 40 39 39 39 39 41 42 43 43 42 41 40 38 36 36 37 38 38 38 37 37 36 35 34 33 32 32 31 30 29 28 28 29 29 29 29 30 30 30 30 30 29 28 26 25 24 24 23 23 22 22 22 22 22 22 22 22 22 22 22 21 21 21 21 20 20 20 20 20 20 20 19
43 43 44 43 40 37 35 35 36 36 37 38 39 40 39 39 38 39 40 41 42 42 42 41 40 38 36 35 36 37 37 38 37 37 36 36 35 34 33 33 33 32 31 30 29 29 29 29 29 29 30 30 31 31 30 28 27 26 25 24 24 23 23 23 23 23 23 22 22 22 22 22 22 22 22 21 21 21 21 21 21 21 21 21 21 21
42 43 44 43 40 37 35 36 36 36 36 37 37 38 38 38 38 39 40 42 42 42 41 40 38 36 35 34 35 36 36 35 35 35 36 36 36 35 34 34 34 34 33 32 31 30 29 29 28 28 29 30 31 31 30 28 26 25 24 24 23 23 23 23 23 23 23 23 23 23 22 22 22 22 22 22 21 22 22 22 22 22 22 22 22 22
42 43 45 45 43 40 37 37 36 35 34 35 35 36 37 38 39 40 41 42 42 42 40 39 37 35 34 34 34 33 33 33 33 34 35 36 36 35 35 36 36 36 36 34 33 31 30 28 28 28 29 30 31 31 29 27 25 24 24 23 23 23 23 23 23 23 24 23 23 23 23 22 22 22 22 22 22 22 22 22 22 22 22 22 22 22
43 44 47 48 46 43 40 37 36 34 33 33 34 35 37 39 40 41 41 41 41 41 40 38 36 34 33 33 32 31 31 32 33 33 34 35 35 35 35 36 37 38 38 36 34 32 30 28 27 27 28 30 31 30 29 27 25 24 23 23 22 23 23 23 24 24 24 24 24 23 23 23 22 22 22 22 22 22 22 22 22 22 22 22 22 22
43 45 48 49 48 46 42 38 35 33 32 32 33 35 37 39 41 41 41 41 40 39 38 36 34 33 32 31 31 31 31 32 33 33 33 33 33 33 34 35 36 37 37 36 34 31 29 27 26 26 27 29 30 30 28 26 24 23 22 22 22 22 23 23 23 24 24 24 24 24 24 23 23 22 22 22 22 22 22 22 22 22 22 22 22 22
45 46 48 48 48 47 44 40 35 32 31 32 34 36 38 40 41 41 40 39 39 39 37 35 34 32 31 31 30 31 32 33 33 33 33 32 31 31 32 32 33 34 34 33 32 29 27 25 25 26 27 29 29 29 27 25 24 23 22 21 22 22 23 23 23 24 24 24 24 24 24 24 23 23 23 22 22 22 22 22 22 22 22 22 22 22
46 47 48 48 48 47 45 40 36 33 32 34 36 38 39 40 40 40 40 40 40 40 38 35 33 32 30 30 30 32 33 34 34 34 33 32 31 31 31 31 31 31 31 30 28 26 24 24 25 26 28 29 28 27 26 24 23 22 21 21 21 22 22 23 23 23 23 23 24 24 24 24 24 23 23 23 22 22 22 22 22 22 22 22 22 22
47 47 48 49 49 48 44 39 35 33 34 36 38 39 40 40 41 40 40 41 40 39 37 35 32 30 29 30 31 33 34 35 35 34 34 33 32 31 30 30 29 28 27 26 24 23 23 23 25 26 28 28 27 26 24 23 22 21 21 21 21 22 22 23 23 23 23 23 23 23 23 24 23 23 23 23 23 22 22 22 22 22 22 22 22 22
48 49 50 51 50 46 41 36 33 34 36 39 40 41 41 42 42 41 40 39 38 36 34 32 30 28 28 30 32 34 35 35 34 33 32 31 30 29 28 27 26 25 24 22 21 21 22 23 25 27 27 27 26 24 23 22 21 20 20 21 21 22 22 22 22 23 23 23 23 23 23 23 23 23 23 23 23 22 22 22 22 22 22 22 22 22
50 51 51 51 48 42 36 34 35 37 40 42 42 43 43 44 43 42 40 38 36 33 32 30 28 27 28 30 32 33 33 32 30 28 27 26 25 24 23 23 22 21 20 20 20 21 22 24 26 27 27 26 24 23 22 21 20 20 20 20 21 21 22 22 22 22 22 23 23 23 23 23 23 23 23 23 22 22 22 22 22 22 22 22 22 22
52 52 50 48 43 38 36 37 39 42 43 44 45 46 46 45 44 43 43 40 37 34 32 30 28 27 28 30 31 30 28 26 23 22 21 20 20 19 18 18 18 18 19 19 20 21 23 24 25 26 25 24 23 22 21 20 20 19 20 20 20 21 21 21 22 22 22 22 23 23 23 23 23 23 23 22 22 22 22 22 22 22 22 22 22 22
52 49 46 42 39 38 39 42 44 45 45 46 46 47 46 45 44 44 44 42 39 35 33 30 28 27 28 28 27 25 21 19 17 16 16 16 16 15 15 16 17 18 19 20 21 22 23 24 25 24 24 23 22 21 20 19 19 19 19 20 20 20 21 21 21 22 22 22 23 23 23 23 23 23 23 22 22 22 22 22 22 22 22 22 22 22
48 44 41 39 39 41 43 45 46 46 47 47 47 46 45 44 44 44 43 41 39 35 32 29 28 27 26 24 21 19 16 15 14 14 14 14 15 15 16 17 18 19 20 21 22 22 23 24 23 23 22 21 21 20 19 19 19 19 19 19 20 20 21 21 21 22 22 22 23 23 23 23 23 23 23 22 22 22 22 22 22 22 22 22 22 22
43 41 40 40 42 43 43 44 45 46 47 47 46 45 44 43 43 42 41 39 37 34 30 28 26 24 21 18 17 15 13 13 14 14 15 16 16 17 17 18 19 20 21 22 22 22 23 22 22 21 21 20 20 19 19 19 19 19 19 19 20 20 20 21 21 21 22 22 22 23 23 23 23 22 22 22 22 22 22 22 22 22 22 22 22 22
41 41 41 42 42 42 42 43 45 46 47 46 45 44 43 41 40 39 38 37 34 31 27 24 22 20 17 16 15 14 13 14 15 16 17 18 19 19 19 19 20 20 21 22 22 22 22 21 21 20 20 19 19 18 18 18 19 19 19 19 20 20 20 21 21 21 22 22 22 22 22 22 22 22 22 22 22 22 22 22 22 22 22 22 22 22
41 41 41 40 40 41 42 43 45 46 46 45 43 41 40 38 37 36 35 33 30 27 23 21 19 17 16 15 15 14 14 15 16 17 18 19 20 20 20 20 20 21 21 22 22 21 21 20 19 19 19 18 18 18 18 18 19 19 19 20 20 20 20 20 21 21 21 21 22 22 22 22 22 21 21 21 21 21 22 22 22 22 22 22 22 22
40 39 39 39 40 41 43 44 45 45 46 44 42 39 37 36 36 35 34 31 27 23 21 19 17 16 16 15 15 16 16 16 17 18 19 20 20 20 20 20 21 21 21 21 21 20 20 19 19 18 18 18 18 18 18 19 19 19 19 20 20 20 20 20 20 20 20 21 21 21 21 21 21 21 21 21 21 21 21 22 22 22 22 22 22 22
38 38 39 40 41 42 43 44 45 46 45 43 41 39 37 36 35 34 31 27 24 22 19 18 17 16 16 16 17 17 17 17 18 19 20 21 21 21 21 20 20 20 20 20 20 20 19 18 18 18 18 18 18 18 18 19 19 19 19 19 19 19 19 19 20 20 20 20 20 20 20 20 20 20 20 20 20 21 21 21 22 22 22 22 22 22
37 38 39 40 41 42 43 45 45 45 44 42 40 38 37 35 32 30 27 24 22 20 19 17 17 16 16 17 18 18 18 19 19 20 20 21 21 21 21 20 20 20 20 20 19 19 18 18 18 18 18 18 18 18 19 19 19 19 19 19 19 19 19 19 19 19 19 19 19 19 19 19 19 19 19 20 20 20 20 21 21 21 22 22 22 22
38 40 40 41 42 43 45 45 45 43 41 39 37 35 33 30 27 25 23 21 20 19 17 17 16 17 17 18 19 19 19 19 19 20 21 21 21 21 21 20 20 20 19 19 19 19 18 18 18 18 18 19 19 19 19 19 19 18 18 18 18 18 18 19 19 19 19 19 19 19 19 19 19 19 19 19 20 20 20 20 21 21 21 21 21 21
41 41 42 43 44 45 45 44 42 38 35 32 30 28 26 24 22 21 20 19 18 17 17 17 17 18 18 19 20 20 20 20 20 20 21 21 21 21 21 20 20 19 19 19 19 19 18 18 18 19 19 19 19 19 19 19 18 18 18 18 18 18 18 19 19 19 19 19 18 18 18 18 18 19 19 19 19 20 20 20 20 21 21 21 21 21
43 43 44 45 45 45 43 40 36 31 28 25 24 22 21 20 20 19 19 18 17 17 17 17 18 19 19 20 20 20 20 20 20 21 21 21 21 21 21 20 19 19 19 19 19 19 19 19 19 19 19 19 19 19 19 18 18 18 18 18 18 18 19 19 19 19 19 19 18 18 18 18 18 19 19 19 19 20 20 20 20 21 21 21 21 21
45 45 45 45 44 41 37 33 28 24 22 21 21 20 19 19 19 19 18 17 17 17 18 18 19 20 20 21 21 21 21 21 21 21 21 21 20 20 20 20 19 19 19 19 18 18 18 19 19 19 18 18 18 18 18 18 18 18 18 18 18 19 19 19 19 19 19 18 18 18 18 18 19 19 19 19 20 20 20 20 21 21 21 21 21 21
46 46 44 42 39 35 30 26 23 22 21 20 20 19 19 19 19 18 18 18 18 18 19 19 20 21 21 21 21 21 21 21 21 21 21 20 20 20 20 19 19 19 19 18 18 18 18 18 19 19 19 18 18 18 18 18 19 19 19 19 19 19 19 19 19 19 18 18 18 18 18 19 19 19 19 19 20 20 20 21 21 21 21 21 21 21
45 43 40 36 32 29 25 24 23 22 21 21 20 19 19 19 19 19 18 19 19 19 20 21 21 21 21 21 21 21 22 22 21 21 20 20 19 19 19 19 19 18 18 18 18 17 17 18 18 19 19 19 19 19 19 19 19 19 19 19 19 19 19 19 19 19 18 18 18 18 18 19 19 19 19 20 20 20 21 21 21 21 21 21 21 21
42 38 34 31 28 26 25 24 23 22 22 21 20 20 20 20 20 20 20 20 20 21 21 22 22 22 21 21 21 22 22 21 21 20 20 19 19 19 19 18 18 18 18 18 17 17 17 17 18 18 19 19 19 19 19 19 19 19 19 19 19 19 19 19 19 19 18 18 18 18 19 19 19 19 19 20 20 20 21 21 21 21 21 21 21 21
37 33 30 28 27 26 25 24 23 23 22 22 21 21 21 21 21 21 21 21 22 22 22 22 22 21 21 21 21 21 21 21 20 20 19 18 18 18 18 18 18 18 18 17 17 18 18 18 18 18 19 19 20 20 20 20 20 20 20 19 19 19 19 19 19 19 19 18 19 19 19 19 19 20 20 20 20 20 21 21 21 21 21 21 21 21
32 30 28 27 26 26 25 24 24 23 23 22 22 22 22 22 22 23 23 23 23 22 22 22 21 21 21 21 21 21 21 20 20 20 19 18 18 18 18 18 18 18 18 18 18 18 18 18 19 19 19 20 20 20 21 21 21 20 20 20 19 19 19 19 19 19 19 19 19 19 19 20 20 20 20 20 20 21 21 21 21 21 21 21 21 21
30 29 28 27 26 25 25 24 24 24 23 23 23 23 23 23 23 23 23 23 22 22 22 22 21 21 21 21 20 20 20 20 20 19 19 18 18 18 18 18 18 18 18 18 19 19 19 19 19 20 20 20 20 21 21 21 21 21 20 20 19 19 19 19 19 19 19 19 19 20 20 20 20 20 20 21 21 21 21 21 21 21 21 21 21 20
30 29 28 27 26 26 25 25 25 24 24 24 24 23 23 23 23 23 23 22 22 22 21 21 21 21 21 21 20 20 20 20 20 19 19 18 18 18 18 18 19 19 19 19 19 19 20 20 20 20 21 21 21 21 21 21 21 21 21 20 20 19 19 19 19 20 20 20 20 20 20 20 21 21 21 21 21 21 21 21 21 21 21 21 21 21
30 29 28 27 27 26 26 26 25 25 24 24 24 24 24 23 23 23 22 22 22 21 21 21 21 21 21 21 20 20 20 20 20 19 19 19 19 18 18 19 19 19 20 20 20 20 20 20 21 21 21 21 22 22 22 22 21 21 21 20 20 20 20 20 20 20 20 20 21 21 21 21 21 21 21 21 21 21 21 21 21 21 21 21 21 21
31 30 29 28 28 27 27 26 25 25 25 24 24 24 24 23 23 22 22 22 21 21 21 21 21 21 21 20 20 20 20 20 20 20 20 19 19 19 19 19 20 20 20 21 21 21 21 21 21 21 22 22 22 22 22 22 22 21 21 21 21 21 20 21 21 21 21 21 21 21 21 21 21 21 21 21 21 21 21 21 21 21 21 21 21 21
31 30 29 29 28 27 27 26 26 25 25 25 24 24 23 23 23 22 22 22 22 22 21 21 21 21 21 21 21 21 20 20 20 20 20 20 20 20 20 20 20 21 21 21 21 21 21 21 22 22 22 22 23 23 22 22 22 22 22 22 21 21 21 21 21 21 21 21 21 22 22 22 22 22 22 22 22 21 21 21 21 21 21 21 21 21
31 30 29 29 28 27 27 26 26 25 25 25 24 24 23 23 23 22 22 22 22 22 22 22 22 22 22 22 21 21 21 21 21 21 21 21 21 21 21 21 21 21 21 21 22 22 22 22 22 22 22 23 23 23 23 22 22 22 22 22 22 22 22 21 22 22 22 22 22 22 22 22 23 22 22 22 22 22 22 22 21 21 21 22 22 22
31 30 29 28 28 27 27 26 26 25 25 24 24 23 23 23 23 23 22 22 22 22 22 22 22 22 22 22 22 22 22 21 21 21 21 21 21 21 21 21 22 22 22 22 22 22 22 22 22 22 23 23 23 23 23 23 23 23 23 23 23 23 22 22 22 22 22 22 22 23 23 23 23 23 23 23 23 23 22 22 22 22 22 22 22 22
30 30 29 28 27 27 26 26 25 25 24 24 24 23 23 23 23 23 23 23 23 23 23 23 22 22 22 22 22 22 22 22 21 21 21 21 21 21 22 22 22 22 22 22 22 22 22 22 23 23 23 23 23 23 23 23 23 23 23 23 23 23 23 23 23 23 23 23 23 23 23 23 23 24 24 23 23 23 23 23 22 22 22 22 22 22
30 29 28 28 27 27 26 26 25 25 24 24 24 23 23 23 23 23 23 23 23 23 23 23 23 23 23 22 22 22 22 22 22 22 22 22 22 22 22 22 22 22 22 22 22 22 22 22 23 23 23 23 23 23 23 23 23 23 23 23 24 23 23 23 23 23 23 23 24 24 24 24 24 24 24 24 24 24 23 23 23 23 23 23 23 23
29 28 28 27 27 26 26 25 25 25 24 24 24 24 24 24 24 24 23 23 23 23 23 23 23 23 23 23 23 23 22 22 22 22 22 22 22 22 22 22 22 22 22 22 22 22 22 22 23 23 23 24 24 24 23 23 23 23 24 24 24 24 24 24 24 24 24 24 24 24 24 25 25 25 25 25 24 24 24 24 23 23 23 23 23 23
28 28 27 27 26 26 26 25 25 25 25 25 25 24 24 24 24 24 24 23 23 24 24 24 23 23 23 23 23 23 23 23 23 23 23 23 23 23 22 22 22 22 22 22 22 23 23 23 23 23 23 24 24 24 24 24 24 24 24 24 24 24 24 25 25 25 25 25 25 25 25 26 26 26 25 25 25 25 24 24 24 24 24 24 24 24
27 27 27 27 26 26 26 26 26 26 25 25 25 25 25 24 24 24 24 24 24 24 24 24 24 24 24 24 23 23 23 23 24 24 23 23 23 23 23 22 22 22 22 22 22 23 23 23 23 24 24 24 24 24 25 25 25 25 25 25 24 25 25 25 25 25 26 26 26 26 26 26 26 26 26 26 26 25 25 25 25 25 25 24 24 24
27 26 26 26 26 26 26 26 26 26 26 26 26 25 25 24 24 24 24 24 24 24 24 24 24 24 24 24 24 24 24 24 24 24 24 24 24 23 23 23 22 22 22 22 22 23 23 23 24 24 24 25 25 25 25 25 25 25 26 25 25 25 25 25 26 26 26 26 26 26 27 27 27 27 27 27 27 26 26 26 25 25 25 25 25 25
26 26 26 26 26 27 27 27 27 27 27 26 26 25 25 24 24 24 24 24 25 25 25 25 25 24 24 24 24 24 24 25 25 25 25 24 24 24 23 23 23 22 22 22 22 23 23 23 24 24 24 25 25 25 25 25 25 26 26 26 26 26 26 26 26 26 26 26 26 26 26 27 27 27 27 28 27 27 27 26 26 26 26 26 25 25
26 26 26 27 27 27 27 27 27 27 27 26 26 25 25 24 24 24 24 25 25 25 25 25 25 25 25 25 25 25 25 25 25 25 25 25 24 24 23 23 22 22 22 23 22 23 23 23 24 24 24 24 25 25 25 25 25 25 25 26 26 26 26 26 26 26 26 26 26 26 26 26 27 27 27 28 28 28 27 27 27 26 26 26 26 26
26 27 27 27 27 28 28 28 27 27 26 26 25 25 25 24 24 24 24 25 25 25 25 25 25 25 25 25 25 25 25 25 25 25 25 24 24 23 23 23 22 22 23 23 23 23 23 23 24 24 24 24 24 24 25 25 24 24 25 25 25 25 26 26 26 26 26 26 26 26 26 26 26 27 27 27 28 28 28 27 27 27 27 26 26 26
Wind_Direction
246 248 249 250 249 248 249 253 258 262 266 270 272 274 276 278 280 282 284 287 291 296 299 301 301 300 298 297 296 294 292 290 289 288 287 284 276 267 261 261 264 269 274 279 283 287 291 294 295 296 297 298 299 300 301 302 302 302 301 300 300 299 297 295 292 290 289 288 287 286 286 287 287 288 290 292 294 295 297 299 301 302 302 302 301 300
247 248 249 250 249 248 250 254 258 262 266 269 271 274 276 279 282 284 285 286 289 293 297 299 299 298 297 295 294 292 291 289 287 286 285 282 275 267 260 259 261 265 270 276 281 286 290 293 294 295 296 297 298 300 301 301 301 301 300 300 299 298 296 293 292 290 288 287 286 286 286 286 286 287 288 290 292 294 296 298 300 301 301 300 299 298
247 248 249 249 248 248 250 254 259 263 266 268 271 273 276 280 283 285 287 287 288 291 294 296 297 297 295 294 293 291 290 289 287 285 283 280 274 266 260 258 259 262 266 272 278 283 288 291 293 294 295 296 298 299 300 300 300 300 299 299 297 296 294 292 290 289 287 286 286 286 287 286 286 286 287 289 291 293 295 296 298 299 300 299 298 298
247 248 249 249 248 248 250 254 258 262 265 267 270 273 277 280 283 285 287 288 289 290 292 294 295 295 294 292 291 291 290 289 287 285 283 280 274 266 260 257 258 260 263 269 275 281 286 290 292 294 295 296 298 298 299 299 299 298 298 297 296 294 292 291 289 288 286 285 285 285 286 286 286 286 287 287 289 291 293 295 296 297 297 297 297 297
247 248 248 247 245 245 248 252 257 261 264 267 270 274 277 280 282 284 286 287 288 290 291 293 293 293 292 291 290 291 290 289 286 284 282 280 274 267 260 257 257 259 262 267 273 279 285 288 291 293 295 296 297 298 298 298 297 297 297 296 294 293 291 290 288 286 285 284 283 284 285 285 286 287 287 287 288 289 291 292 294 295 295 295 294 294
248 248 247 245 242 242 245 250 255 260 264 267 270 274 277 279 281 283 285 287 288 290 291 292 292 291 290 290 290 290 289 287 285 283 282 280 275 268 261 258 257 259 262 266 272 277 283 287 290 292 294 296 297 297 297 296 296 296 295 294 293 292 290 289 287 286 284 283 282 282 283 284 285 286 287 288 289 289 290 290 291 292 292 292 292 292
248 248 246 242 239 239 243 248 254 259 263 267 270 273 276 278 281 283 285 287 289 290 291 291 290 289 289 289 289 288 286 284 284 283 283 280 275 268 261 258 258 260 262 266 271 276 280 284 288 291 293 295 295 296 295 295 294 294 293 293 292 291 289 288 286 285 283 282 281 281 281 283 284 285 286 288 289 290 290 290 291 291 292 292 293 293
248 247 243 238 236 237 242 247 252 257 262 265 269 272 275 278 281 284 286 288 290 291 291 290 289 288 288 288 286 284 283 282 283 283 283 280 275 268 262 258 258 260 262 265 269 273 277 281 284 287 290 292 293 294 294 293 293 292 292 291 290 289 288 286 285 284 282 281 280 280 280 281 282 283 285 286 288 289 290 292 292 293 293 294 295 295
248 247 243 237 235 237 241 246 251 255 259 263 267 272 275 279 283 286 288 289 290 290 290 289 287 286 285 284 282 280 280 281 282 283 282 280 275 269 262 258 257 259 261 264 267 270 273 276 279 283 286 289 291 292 292 291 291 290 290 289 288 287 286 285 284 282 281 280 279 279 278 279 280 281 283 284 286 287 289 291 292 293 294 295 296 297
248 248 245 242 240 241 244 246 249 252 255 260 266 272 277 281 284 287 289 289 289 289 288 286 285 284 282 279 278 278 279 282 283 284 282 280 276 270 264 260 258 258 260 262 265 267 269 272 275 279 283 287 289 290 289 288 287 287 286 286 285 285 284 283 282 281 280 279 278 278 277 277 278 279 281 282 284 285 287 288 290 291 292 293 295 295
248 248 247 246 247 248 249 250 250 250 254 259 266 273 278 283 286 288 289 288 288 286 285 284 283 281 277 275 275 277 280 283 285 286 284 281 277 272 267 263 261 260 261 262 263 264 267 269 272 277 281 284 286 287 286 285 284 283 283 282 282 282 281 280 279 279 278 278 277 277 277 277 277 277 279 280 282 283 284 286 287 288 290 291 291 292
247 247 247 248 250 253 255 254 252 251 254 261 268 275 281 285 288 288 287 286 285 284 283 282 279 275 272 271 274 278 282 285 286 287 286 284 279 275 270 267 265 264 263 262 262 262 265 268 272 276 279 282 284 284 284 283 282 281 280 279 279 278 278 277 277 276 276 276 276 276 276 276 276 276 277 278 280 281 282 284 285 286 287 288 289 289
248 248 247 248 251 255 258 256 253 252 258 266 274 280 285 288 289 288 286 285 284 283 281 278 274 270 268 271 275 280 283 284 285 286 287 285 282 278 274 272 269 266 263 261 260 260 264 268 272 276 278 281 282 282 282 281 281 280 279 278 277 276 275 275 274 274 274 275 275 275 276 276 276 276 277 277 278 279 281 282 283 284 285 286 287 287
250 249 248 249 252 255 256 253 251 253 263 274 281 285 288 290 290 289 287 284 281 278 275 271 268 266 268 273 278 281 281 280 282 284 286 285 282 279 277 275 271 267 262 258 257 259 264 269 273 276 278 279 279 280 280 280 279 279 278 277 276 275 274 273 273 273 273 273 274 274 275 275 276 276 277 277 277 278 279 280 281 282 283 284 285 286
250 251 250 251 252 253 253 250 250 257 270 279 285 287 289 290 291 289 284 278 274 271 267 264 264 266 271 276 279 278 276 276 279 282 284 283 281 279 277 274 270 264 258 255 256 260 265 269 273 275 276 277 277 278 278 278 278 277 277 276 274 273 273 272 272 272 272 272 272 273 274 274 275 275 276 276 277 277 278 279 280 281 282 283 283 284
250 251 252 252 252 251 250 249 255 264 274 280 284 286 288 289 289 285 279 273 267 264 261 260 263 268 275 277 276 274 273 274 278 282 283 281 279 276 273 269 264 259 255 255 258 262 266 269 271 273 275 276 276 276 276 276 276 276 275 274 273 272 272 272 272 272 272 272 272 272 273 273 274 275 275 276 276 277 278 278 279 280 281 282 282 282
248 249 251 251 250 249 249 254 262 270 276 280 283 285 286 287 286 281 274 268 263 261 259 261 267 274 278 276 274 272 272 274 278 280 279 277 274 271 267 263 258 254 254 256 259 262 265 268 270 272 273 274 274 274 275 275 275 274 273 273 272 272 272 272 272 272 272 272 272 273 273 274 274 275 275 276 276 277 277 278 279 280 280 281 282 282
246 247 248 248 249 250 254 261 267 272 276 279 281 283 285 285 282 277 271 266 264 263 264 267 272 276 276 273 271 270 271 273 275 275 274 271 268 264 260 255 252 252 253 256 259 261 263 266 268 270 271 272 273 273 274 274 273 273 272 272 272 272 272 272 272 272 272 273 273 274 274 275 275 276 276 276 277 277 277 278 278 279 280 281 282 282
244 244 244 245 249 254 260 265 269 272 275 278 280 282 282 280 277 272 268 266 266 267 269 271 273 273 271 268 267 267 267 267 267 266 264 262 259 256 251 248 247 249 252 255 257 260 262 265 267 268 269 270 271 272 272 273 272 272 272 272 272 272 272 272 272 273 273 274 274 275 276 276 277 277 277 277 277 277 277 277 278 278 279 280 280 281
244 242 242 246 252 258 263 266 269 272 275 277 279 279 277 274 269 266 265 266 268 270 270 270 268 266 263 260 259 259 258 257 255 254 253 251 250 249 247 246 247 250 253 255 257 259 261 263 265 266 268 269 270 271 272 272 272 272 272 272 272 272 273 273 273 273 274 275 276 276 277 277 278 278 278 278 278 278 277 277 277 278 278 279 279 280
243 242 245 251 257 262 265 268 271 273 275 276 276 274 271 266 263 262 264 266 268 269 267 264 260 256 251 247 246 247 247 246 245 245 245 245 246 247 248 249 250 253 255 257 257 259 260 262 263 265 266 268 269 270 271 272 272 272 273 273 273 273 273 274 274 275 275 276 277 277 278 278 279 279 279 279 279 278 278 278 278 278 278 278 278 278
242 245 250 256 261 264 267 270 272 274 274 273 271 267 263 260 259 260 263 265 266 264 259 253 248 242 238 235 237 238 238 240 241 242 244 246 248 249 251 251 253 255 256 258 259 259 260 261 262 263 265 266 268 270 271 272 272 273 273 274 274 274 274 275 275 276 277 277 278 278 278 279 279 279 279 279 279 279 279 279 278 278 278 278 278 278
244 250 255 259 263 266 268 270 271 271 271 268 264 260 256 255 255 258 261 262 260 254 247 239 233 229 227 229 232 233 234 236 240 244 246 249 251 252 253 253 254 255 256 257 258 259 260 260 261 262 264 266 268 269 271 272 273 273 274 274 274 275 275 276 277 277 277 278 278 279 279 279 280 280 280 280 279 279 279 279 278 278 278 278 278 278
247 252 257 260 264 266 268 268 268 266 264 261 258 254 252 252 254 256 258 255 250 241 232 225 221 220 221 225 229 232 234 236 239 244 247 251 253 254 254 255 255 255 255 256 257 258 259 260 261 262 264 266 268 269 271 272 273 273 274 274 275 276 276 276 277 277 278 278 279 279 279 280 280 280 280 280 280 280 279 279 279 279 278 278 278 278
246 251 256 261 265 267 267 265 263 261 260 258 255 252 251 252 254 254 252 245 236 227 220 216 215 218 221 224 229 233 236 237 240 245 248 251 253 254 254 254 255 255 255 255 256 257 258 260 261 263 265 266 268 269 270 271 272 273 273 274 275 276 276 277 277 278 278 279 279 280 281 281 281 281 281 281 280 280 280 280 279 279 279 279 278 278
246 252 258 262 265 266 264 261 260 260 259 258 256 254 253 252 251 247 239 231 223 217 214 214 217 220 224 227 230 233 236 238 242 246 249 252 253 253 253 253 253 253 253 254 256 257 258 260 261 263 265 266 267 268 269 270 271 271 273 274 275 276 277 277 278 278 279 280 281 281 282 283 283 283 283 282 282 281 281 281 280 280 280 279 279 279
250 255 260 263 264 263 260 259 259 259 260 258 256 253 250 246 240 232 223 217 214 212 212 213 216 220 225 229 232 235 237 240 243 246 249 250 251 251 250 250 251 251 252 253 255 256 258 259 261 263 264 266 267 268 268 269 271 272 273 274 276 277 278 279 279 280 281 282 283 283 284 284 284 284 284 284 283 283 283 282 282 281 281 280 280 279
255 259 262 263 262 260 258 257 257 258 256 253 248 243 237 230 223 216 211 210 210 210 212 214 217 222 226 230 234 236 238 241 244 245 246 248 248 248 248 248 248 249 251 253 254 256 257 259 261 262 264 265 267 268 269 270 272 273 274 276 277 278 279 280 282 283 284 284 285 285 286 286 286 285 285 285 285 285 284 284 283 283 282 281 281 280
259 262 263 262 260 257 255 254 253 250 244 237 230 223 217 213 209 207 207 208 209 211 214 217 221 225 229 232 235 237 239 241 242 243 244 245 245 246 247 247 248 249 251 252 254 256 257 259 261 262 264 265 267 269 270 272 273 274 276 277 278 280 281 282 283 284 285 286 287 287 287 287 287 287 287 286 286 286 285 285 284 283 283 282 281 280
261 262 261 259 256 252 250 247 241 232 222 215 209 205 203 203 204 206 208 208 209 212 217 220 224 228 231 234 236 238 240 240 240 241 242 242 243 245 247 248 249 250 251 253 255 257 258 260 261 263 264 266 267 269 271 272 274 275 276 278 279 281 282 283 284 285 286 287 288 288 288 288 288 288 287 287 287 286 285 285 284 283 283 282 281 280
261 260 258 254 249 244 238 230 219 209 203 200 198 198 199 201 204 206 208 209 211 214 219 223 226 229 232 235 238 240 240 240 240 240 241 242 243 245 247 248 250 251 252 254 255 257 259 261 263 264 266 267 268 269 271 272 274 275 277 278 280 281 282 284 285 286 286 287 288 288 288 288 288 288 288 287 287 286 285 285 284 283 283 282 281 280
257 255 250 244 237 229 219 209 201 197 195 195 196 198 199 201 204 206 209 211 214 218 222 225 228 230 232 235 236 238 238 239 239 240 241 242 244 246 247 249 251 252 253 255 256 258 259 261 264 266 267 268 270 270 271 272 274 276 277 279 280 281 283 284 285 286 286 287 287 288 288 287 287 287 287 286 286 285 285 285 284 284 283 283 282 280
250 246 238 229 220 210 202 197 194 194 194 195 197 198 200 203 206 209 212 215 218 222 225 228 230 231 232 233 235 236 237 239 240 242 243 244 245 246 248 249 251 253 254 256 257 258 259 261 263 265 267 268 270 271 272 273 274 276 278 279 280 282 283 284 285 285 286 286 286 286 286 286 286 286 285 285 285 285 285 285 285 285 285 284 283 282
240 232 222 213 204 198 194 193 193 194 195 197 198 200 203 206 210 213 216 219 221 224 226 229 230 231 231 232 234 236 238 240 242 243 244 245 246 247 249 250 252 254 255 256 258 259 260 261 262 264 265 267 268 270 272 273 275 276 277 279 280 281 282 283 284 284 285 285 285 285 285 285 284 285 285 285 285 285 286 286 286 286 286 286 285 284
227 216 207 200 195 193 193 194 195 196 198 200 202 204 207 211 214 217 219 221 223 224 226 227 228 229 230 232 234 237 239 241 242 243 244 245 246 248 250 251 253 255 256 257 258 259 260 261 262 263 264 266 267 269 270 272 274 275 276 278 279 280 282 282 283 283 283 283 283 283 283 284 284 284 285 285 285 286 286 287 287 287 287 287 286 285
211 202 196 193 192 193 194 196 197 200 202 204 207 209 212 215 217 219 221 222 223 224 225 226 227 229 230 232 234 236 239 241 242 243 244 245 247 248 250 252 254 256 257 258 259 259 260 261 262 263 264 265 267 268 269 271 273 274 276 278 279 280 281 281 282 282 282 282 282 282 282 283 283 284 285 285 286 286 287 287 287 288 288 287 287 286
198 193 191 192 193 195 196 199 201 204 206 209 211 213 215 217 218 220 221 221 222 223 224 225 227 229 231 233 235 237 239 241 243 244 245 246 247 249 250 252 254 255 257 258 259 260 260 261 262 263 264 265 267 268 269 271 272 274 275 277 278 279 279 280 280 280 281 281 281 281 282 282 283 283 284 285 285 286 287 287 287 287 287 287 287 286
191 191 191 193 195 197 200 202 205 208 210 212 214 215 217 218 219 220 221 221 222 223 224 225 227 229 231 233 235 237 239 241 243 244 246 247 248 250 251 252 254 255 257 258 259 260 260 262 262 264 265 265 266 267 269 270 272 273 274 276 277 278 278 279 279 279 280 280 281 281 282 282 283 283 284 284 285 285 286 286 287 287 287 287 287 286
190 191 193 195 197 200 203 205 208 210 212 214 215 216 217 218 219 220 221 222 222 223 225 226 228 230 232 234 235 237 238 240 242 244 246 247 249 250 252 253 254 256 256 258 259 260 261 262 263 264 265 266 266 267 269 270 272 273 274 274 275 276 277 278 279 279 280 280 281 282 282 282 283 283 283 284 284 284 285 285 286 286 287 287 287 286
191 193 195 197 199 202 205 207 209 211 213 214 215 216 217 218 218 219 220 221 222 224 225 227 229 231 232 234 236 237 239 240 242 244 245 247 249 250 252 253 254 256 257 258 259 260 261 262 263 264 265 266 267 268 269 270 272 273 274 274 275 275 276 277 278 279 280 281 281 282 282 282 283 283 283 284 284 284 284 285 285 286 286 286 286 286
193 195 196 198 201 203 206 208 210 212 213 215 216 216 217 218 218 219 220 221 222 224 225 227 229 231 233 234 236 238 239 241 242 244 246 247 249 251 252 253 255 256 257 258 259 260 261 262 262 263 264 265 266 268 269 270 272 273 274 274 275 275 275 276 278 279 280 281 281 282 282 282 283 283 283 283 284 284 285 285 285 286 286 286 286 286
194 196 197 199 202 204 207 208 211 212 214 215 216 217 217 218 218 219 220 221 222 224 225 227 229 231 232 234 236 238 240 241 243 244 246 248 250 251 253 254 255 256 257 258 259 259 260 261 262 263 264 264 266 267 268 269 271 272 273 274 275 276 276 277 278 278 279 280 280 281 281 282 282 282 283 283 284 284 284 285 286 286 286 286 286 285
195 196 198 200 203 205 207 209 212 213 215 216 217 217 218 219 219 220 221 222 223 225 227 228 230 232 234 235 236 238 240 242 243 245 247 248 250 252 253 255 256 257 258 259 259 259 260 260 261 262 263 264 265 266 267 269 270 271 272 273 275 276 277 277 278 278 279 280 280 281 281 281 282 282 282 283 283 284 284 285 285 285 286 285 285 285
196 197 199 202 204 206 208 210 212 214 215 216 217 218 219 220 220 221 222 223 225 226 228 230 232 233 235 236 237 239 241 242 244 246 247 249 251 252 254 255 256 257 258 259 259 259 260 260 261 262 263 264 265 266 267 268 268 269 270 272 273 275 276 277 278 279 279 280 280 280 281 281 281 281 282 282 282 283 283 284 284 284 285 284 284 284
197 199 201 203 205 207 209 211 213 214 215 217 217 218 219 220 222 223 224 225 226 228 229 231 233 235 236 237 239 240 242 243 245 247 248 250 251 253 254 256 257 257 258 259 259 260 260 261 261 262 263 264 265 266 267 267 268 268 268 270 272 273 275 276 277 278 279 280 280 280 280 280 281 281 281 281 282 282 282 283 283 283 283 283 283 283
199 201 203 205 207 209 211 212 213 215 216 217 218 219 220 221 223 224 225 226 228 229 231 233 234 235 237 238 240 241 243 244 246 247 249 251 252 254 255 256 257 258 258 259 259 260 260 261 262 262 263 264 264 265 266 267 267 267 268 269 270 272 273 275 277 278 279 280 280 280 280 280 280 280 280 280 280 281 281 281 282 282 282 282 282 282
201 203 205 207 208 210 212 213 214 216 217 218 219 220 221 222 224 225 226 228 229 231 232 233 235 236 238 239 240 242 243 245 247 248 250 252 253 254 256 257 258 258 259 259 259 260 260 261 262 263 263 264 264 265 265 266 267 267 268 268 270 271 273 274 276 277 278 279 280 280 280 280 280 280 280 279 279 280 280 280 280 280 280 280 281 281
203 205 207 209 210 212 213 215 216 217 218 219 220 221 222 224 225 226 228 230 231 232 233 234 235 237 238 239 241 242 244 245 247 249 251 252 254 255 256 257 258 259 259 259 260 260 261 262 262 263 264 264 264 264 265 265 266 267 268 269 270 271 272 274 275 276 278 279 279 280 280 280 280 280 279 279 279 279 278 278 278 279 279 279 279 279
206 208 209 211 212 214 215 217 218 219 220 221 222 223 224 225 227 228 230 231 233 234 235 235 236 237 238 239 241 242 244 246 248 249 251 253 255 256 257 258 259 259 260 260 261 261 262 263 263 264 264 264 264 264 264 265 265 266 268 269 270 271 272 274 275 276 277 278 278 279 279 279 279 279 279 278 278 278 277 277 277 277 277 277 277 277
208 210 212 213 215 216 218 219 220 221 222 223 224 225 226 228 229 230 231 233 234 235 236 236 237 238 239 240 241 242 244 246 248 250 252 253 255 257 258 259 260 260 261 261 262 262 264 264 265 265 265 265 265 265 265 265 266 266 268 269 271 272 274 275 276 276 277 277 278 278 278 278 278 278 278 277 277 277 277 276 276 275 275 276 276 275
212 213 215 216 218 219 221 222 223 224 225 226 227 228 229 230 231 232 233 234 235 235 236 236 237 238 239 240 241 243 245 246 248 250 252 254 256 257 258 259 259 260 260 260 261 263 264 265 266 266 266 266 266 266 267 268 268 268 269 270 272 274 275 276 277 277 277 277 277 277 277 276 276 276 276 276 276 276 276 275 275 274 274 274 274 274
Height
3097 3098 3098 3100 3102 3103 3105 3106 3107 3108 3108 3108 3109 3109 3109 3109 3109 3109 3109 3109 3109 3109 3108 3108 3108 3107 3107 3107 3106 3106 3106 3105 3105 3104 3104 3104 3104 3104 3104 3104 3104 3104 3104 3104 3104 3104 3104 3103 3103 3102 3101 3101 3100 3099 3099 3098 3097 3097 3096 3096 3095 3094 3094 3093 3093 3093 3092 3092 3091 3090 3090 3090 3090 3090 3089 3088 3088 3087 3086 3086 3086 3085 3085 3085 3084 3084
3094 3095 3096 3098 3099 3101 3103 3104 3105 3105 3106 3106 3107 3107 3107 3107 3107 3107 3107 3107 3107 3107 3106 3105 3105 3105 3104 3104 3103 3103 3103 3103 3102 3102 3102 3102 3102 3102 3102 3102 3102 3102 3102 3102 3102 3102 3102 3101 3101 3100 3099 3099 3098 3098 3097 3096 3096 3095 3094 3093 3093 3092 3092 3092 3092 3091 3091 3090 3089 3088 3088 3088 3088 3088 3088 3087 3086 3086 3085 3085 3084 3084 3083 3083 3083 3083
3092 3093 3093 3095 3097 3098 3100 3101 3102 3103 3103 3104 3104 3104 3104 3104 3104 3104 3104 3104 3104 3104 3103 3103 3102 3102 3102 3101 3101 3100 3100 3100 3099 3099 3099 3099 3099 3099 3099 3099 3100 3099 3099 3099 3099 3100 3099 3099 3099 3098 3098 3097 3096 3096 3095 3095 3094 3093 3092 3092 3091 3091 3090 3090 3090 3090 3089 3088 3088 3087 3086 3086 3086 3086 3086 3086 3085 3084 3083 3083 3083 3083 3082 3082 3082 3081
3089 3090 3091 3093 3094 3096 3097 3099 3100 3100 3101 3101 3101 3102 3102 3102 3102 3102 3101 3101 3101 3101 3100 3100 3100 3099 3098 3098 3098 3098 3097 3097 3097 3097 3097 3097 3097 3097 3097 3097 3097 3097 3097 3097 3098 3098 3097 3097 3097 3096 3095 3095 3094 3094 3093 3093 3092 3091 3091 3090 3089 3089 3089 3088 3088 3088 3088 3087 3086 3085 3085 3084 3084 3084 3084 3084 3083 3083 3082 3082 3081 3081 3081 3081 3080 3080
3087 3088 3088 3090 3091 3093 3094 3096 3097 3098 3098 3099 3099 3099 3099 3099 3099 3099 3099 3098 3098 3098 3098 3097 3097 3096 3096 3095 3095 3095 3095 3094 3094 3095 3095 3094 3094 3094 3094 3094 3095 3095 3095 3095 3095 3095 3095 3095 3094 3094 3093 3093 3093 3092 3092 3091 3090 3089 3089 3088 3088 3087 3087 3087 3087 3086 3086 3086 3085 3084 3083 3083 3083 3082 3082 3082 3082 3081 3081 3080 3080 3080 3080 3080 3079 3079
3084 3085 3086 3087 3088 3089 3091 3093 3094 3095 3096 3096 3097 3097 3097 3097 3097 3096 3096 3096 3096 3095 3095 3094 3094 3093 3093 3093 3092 3092 3092 3092 3092 3092 3092 3092 3092 3092 3092 3092 3092 3093 3093 3093 3093 3093 3093 3093 3093 3092 3092 3091 3091 3090 3090 3089 3088 3088 3087 3087 3086 3086 3085 3085 3085 3084 3084 3084 3084 3083 3082 3081 3081 3081 3080 3080 3079 3079 3079 3079 3079 3078 3078 3078 3078 3078
3082 3083 3083 3084 3084 3086 3087 3089 3091 3092 3093 3093 3094 3094 3094 3094 3094 3093 3093 3093 3093 3092 3092 3091 3091 3090 3090 3090 3090 3090 3090 3090 3090 3090 3090 3089 3089 3089 3089 3089 3090 3090 3090 3091 3091 3091 3091 3091 3090 3090 3089 3089 3089 3088 3088 3087 3087 3086 3085 3085 3084 3084 3083 3083 3083 3083 3083 3083 3082 3082 3081 3080 3079 3079 3078 3078 3078 3078 3077 3077 3077 3077 3077 3076 3076 3076
3079 3080 3081 3081 3081 3082 3083 3085 3087 3089 3090 3091 3091 3091 3091 3091 3091 3091 3090 3090 3089 3089 3088 3088 3088 3087 3087 3087 3088 3088 3088 3088 3088 3088 3087 3087 3087 3087 3087 3087 3088 3088 3088 3088 3089 3089 3089 3088 3088 3088 3087 3087 3087 3087 3086 3085 3085 3084 3083 3083 3083 3082 3082 3082 3081 3081 3081 3081 3081 3080 3080 3079 3078 3078 3077 3077 3076 3076 3075 3075 3075 3075 3074 3074 3074 3073
3076 3077 3078 3078 3078 3079 3080 3082 3083 3085 3087 3088 3088 3088 3088 3088 3088 3088 3087 3087 3086 3086 3086 3085 3085 3084 3084 3085 3085 3085 3085 3085 3085 3085 3084 3084 3084 3084 3084 3085 3085 3085 3085 3086 3086 3087 3086 3086 3086 3086 3085 3085 3085 3084 3084 3083 3083 3082 3082 3081 3081 3080 3080 3080 3079 3079 3079 3079 3079 3079 3078 3078 3077 3076 3076 3075 3075 3074 3074 3074 3073 3073 3073 3072 3072 3072
3073 3074 3075 3076 3076 3076 3078 3078 3080 3082 3083 3084 3085 3085 3085 3085 3084 3084 3084 3083 3083 3083 3083 3083 3082 3082 3082 3083 3083 3083 3083 3083 3082 3082 3082 3082 3081 3082 3082 3082 3083 3083 3083 3083 3084 3084 3084 3084 3084 3083 3083 3083 3083 3082 3082 3082 3081 3081 3080 3079 3079 3078 3078 3078 3078 3077 3077 3077 3077 3077 3077 3076 3076 3075 3074 3074 3073 3073 3073 3072 3072 3072 3071 3071 3070 3070
3070 3072 3073 3073 3073 3074 3075 3076 3077 3078 3080 3081 3081 3082 3082 3082 3081 3081 3080 3080 3080 3080 3080 3080 3080 3080 3080 3080 3080 3080 3080 3079 3079 3079 3079 3079 3079 3079 3079 3079 3080 3080 3080 3081 3081 3081 3082 3082 3082 3082 3081 3081 3080 3080 3080 3079 3079 3079 3078 3078 3078 3077 3077 3076 3076 3076 3075 3075 3075 3075 3075 3075 3074 3074 3073 3073 3072 3072 3071 3071 3071 3070 3070 3070 3069 3069
3067 3069 3070 3070 3070 3071 3073 3073 3074 3076 3077 3078 3078 3078 3078 3078 3078 3078 3077 3077 3077 3076 3077 3077 3077 3077 3077 3077 3077 3077 3077 3077 3077 3076 3076 3076 3076 3076 3076 3077 3077 3077 3077 3078 3078 3078 3079 3079 3079 3079 3079 3078 3078 3078 3077 3077 3077 3077 3076 3076 3076 3075 3075 3074 3074 3074 3074 3073 3073 3073 3073 3073 3073 3072 3072 3071 3071 3070 3070 3069 3069 3069 3069 3068 3068 3068
3064 3066 3067 3067 3067 3068 3069 3071 3072 3072 3073 3074 3074 3075 3075 3074 3074 3073 3073 3073 3073 3073 3073 3074 3074 3074 3074 3074 3074 3074 3074 3074 3074 3074 3073 3073 3073 3073 3073 3074 3074 3074 3074 3075 3075 3076 3076 3076 3077 3077 3076 3076 3076 3075 3075 3075 3074 3074 3074 3074 3073 3073 3073 3073 3073 3072 3072 3072 3072 3072 3071 3071 3071 3071 3070 3070 3069 3069 3068 3068 3068 3068 3067 3067 3067 3066
3061 3063 3064 3064 3064 3065 3066 3067 3068 3069 3069 3070 3071 3071 3071 3070 3070 3070 3070 3070 3070 3070 3071 3072 3071 3071 3071 3071 3071 3071 3072 3071 3071 3071 3071 3071 3071 3071 3071 3071 3071 3071 3072 3072 3073 3073 3074 3074 3074 3074 3074 3073 3073 3073 3073 3072 3072 3072 3072 3072 3071 3071 3071 3071 3071 3071 3070 3070 3070 3070 3069 3069 3069 3069 3068 3068 3068 3068 3067 3067 3066 3066 3066 3066 3065 3065
3057 3059 3060 3061 3061 3062 3063 3063 3064 3065 3066 3067 3067 3067 3067 3067 3068 3068 3068 3068 3068 3068 3069 3069 3068 3068 3068 3068 3068 3069 3069 3069 3068 3068 3068 3068 3068 3068 3068 3068 3068 3069 3069 3070 3070 3071 3071 3071 3071 3071 3071 3071 3071 3071 3070 3070 3070 3070 3070 3069 3069 3069 3069 3069 3069 3069 3069 3068 3068 3068 3068 3068 3068 3067 3067 3066 3066 3066 3065 3065 3065 3064 3064 3064 3064 3063
3054 3056 3057 3057 3058 3058 3059 3061 3062 3063 3063 3063 3063 3063 3064 3064 3065 3065 3065 3065 3065 3065 3065 3065 3065 3065 3065 3065 3066 3066 3067 3066 3066 3065 3065 3065 3065 3065 3066 3066 3066 3066 3067 3068 3068 3068 3068 3068 3068 3068 3068 3068 3068 3068 3068 3068 3068 3068 3068 3067 3067 3067 3067 3067 3067 3067 3067 3067 3067 3067 3066 3066 3066 3065 3065 3065 3064 3064 3064 3063 3063 3063 3063 3063 3062 3062
3052 3053 3053 3054 3055 3056 3057 3058 3058 3059 3060 3060 3060 3061 3061 3062 3062 3062 3062 3062 3062 3062 3062 3062 3062 3062 3062 3063 3063 3063 3064 3063 3063 3063 3063 3062 3062 3063 3063 3064 3064 3064 3065 3066 3066 3066 3066 3066 3066 3066 3066 3066 3066 3066 3066 3066 3065 3065 3065 3065 3065 3065 3065 3065 3065 3065 3065 3065 3065 3065 3064 3064 3064 3064 3063 3063 3063 3062 3062 3062 3061 3061 3061 3061 3060 3060
3048 3049 3050 3051 3052 3053 3054 3055 3055 3056 3057 3057 3057 3058 3058 3058 3059 3059 3058 3058 3058 3058 3059 3059 3059 3059 3059 3060 3060 3060 3061 3061 3061 3060 3060 3060 3060 3061 3061 3062 3062 3063 3063 3063 3063 3063 3063 3063 3063 3063 3063 3063 3063 3063 3063 3063 3063 3063 3063 3063 3063 3063 3063 3063 3063 3063 3063 3063 3063 3063 3063 3063 3062 3062 3062 3061 3061 3061 3060 3060 3060 3059 3059 3059 3058 3058
3045 3046 3047 3048 3049 3050 3050 3051 3052 3053 3053 3054 3054 3055 3055 3055 3055 3055 3055 3055 3055 3056 3056 3056 3056 3057 3057 3058 3057 3058 3058 3058 3058 3058 3058 3058 3059 3059 3060 3060 3061 3061 3061 3061 3061 3061 3061 3061 3061 3061 3061 3061 3061 3061 3061 3061 3061 3061 3061 3061 3061 3061 3061 3061 3061 3061 3061 3061 3061 3061 3061 3061 3061 3060 3060 3060 3059 3059 3058 3058 3058 3058 3058 3057 3057 3057
3041 3043 3044 3045 3046 3046 3047 3048 3048 3049 3050 3051 3051 3052 3052 3052 3052 3052 3052 3052 3053 3053 3053 3053 3053 3054 3054 3054 3054 3055 3055 3056 3056 3056 3057 3057 3057 3057 3058 3058 3058 3059 3059 3058 3058 3058 3059 3059 3059 3059 3059 3059 3059 3059 3059 3059 3059 3059 3059 3059 3059 3059 3059 3060 3059 3059 3059 3059 3059 3059 3059 3059 3059 3058 3058 3058 3058 3057 3057 3056 3056 3056 3056 3055 3055 3055
3038 3039 3040 3041 3042 3043 3043 3044 3045 3046 3047 3047 3048 3048 3048 3049 3049 3049 3049 3049 3049 3050 3050 3050 3051 3051 3051 3052 3052 3053 3053 3054 3054 3054 3055 3055 3055 3055 3056 3056 3056 3056 3056 3056 3056 3056 3057 3057 3057 3057 3057 3057 3057 3057 3057 3057 3057 3058 3058 3058 3058 3058 3058 3058 3058 3058 3058 3058 3058 3058 3057 3057 3057 3057 3056 3056 3056 3055 3055 3054 3054 3054 3054 3053 3053 3053
3034 3035 3037 3038 3039 3040 3041 3042 3043 3043 3043 3044 3044 3045 3045 3045 3045 3045 3046 3046 3046 3047 3047 3048 3048 3048 3049 3049 3050 3050 3051 3052 3052 3053 3053 3053 3053 3053 3053 3054 3054 3054 3054 3054 3054 3054 3055 3055 3055 3055 3055 3055 3055 3055 3055 3055 3055 3056 3056 3056 3056 3056 3056 3056 3056 3056 3056 3056 3056 3056 3056 3056 3055 3055 3054 3054 3053 3053 3053 3053 3052 3052 3052 3052 3052 3051
3031 3032 3034 3035 3036 3037 3038 3038 3039 3039 3040 3040 3041 3041 3042 3042 3042 3042 3042 3043 3043 3044 3044 3045 3045 3046 3047 3047 3048 3048 3049 3050 3050 3050 3051 3051 3051 3051 3051 3052 3052 3052 3052 3052 3052 3053 3053 3053 3053 3053 3053 3053 3053 3053 3053 3053 3054 3054 3054 3054 3054 3054 3054 3054 3054 3054 3054 3054 3054 3054 3054 3054 3053 3053 3053 3052 3052 3051 3051 3051 3050 3050 3050 3050 3050 3050
3028 3030 3031 3032 3033 3034 3035 3035 3036 3036 3036 3037 3038 3038 3038 3038 3038 3039 3039 3040 3041 3041 3042 3042 3043 3043 3044 3045 3046 3046 3047 3048 3048 3048 3048 3049 3049 3049 3049 3049 3049 3050 3050 3050 3050 3050 3051 3051 3051 3051 3051 3051 3051 3051 3052 3052 3052 3052 3052 3053 3053 3053 3053 3053 3053 3053 3053 3053 3053 3053 3052 3052 3052 3051 3051 3050 3050 3049 3049 3049 3049 3048 3048 3048 3048 3048
3026 3027 3028 3029 3030 3031 3031 3032 3032 3032 3033 3033 3033 3034 3034 3035 3035 3036 3036 3037 3038 3038 3039 3039 3040 3041 3042 3043 3043 3044 3045 3046 3046 3046 3046 3047 3047 3047 3047 3047 3048 3048 3048 3048 3048 3048 3048 3049 3049 3049 3049 3049 3049 3050 3050 3050 3050 3050 3051 3051 3051 3051 3051 3051 3051 3051 3051 3051 3051 3051 3051 3050 3050 3049 3049 3048 3048 3048 3048 3047 3047 3047 3047 3046 3046 3046
3023 3024 3025 3026 3027 3028 3028 3028 3028 3028 3029 3029 3030 3031 3031 3032 3032 3033 3033 3034 3035 3035 3036 3037 3038 3038 3039 3040 3041 3042 3043 3043 3044 3044 3044 3044 3044 3045 3045 3045 3046 3045 3046 3046 3046 3046 3047 3047 3047 3047 3047 3047 3048 3048 3048 3048 3048 3049 3049 3049 3049 3049 3049 3049 3049 3049 3049 3049 3049 3049 3049 3048 3048 3048 3047 3047 3047 3046 3046 3046 3045 3045 3045 3044 3044 3044
3019 3021 3022 3023 3023 3024 3025 3025 3025 3025 3026 3026 3027 3027 3028 3028 3029 3029 3030 3031 3032 3033 3033 3034 3035 3036 3038 3038 3039 3040 3041 3042 3042 3042 3042 3042 3043 3043 3043 3043 3044 3043 3044 3044 3044 3045 3045 3045 3045 3045 3045 3046 3046 3046 3046 3047 3047 3047 3047 3047 3047 3048 3048 3048 3048 3048 3048 3048 3048 3048 3047 3047 3046 3046 3045 3045 3045 3044 3044 3044 3043 3043 3043 3043 3043 3043
3016 3017 3018 3019 3020 3021 3021 3021 3022 3022 3023 3023 3023 3024 3025 3026 3026 3027 3028 3029 3030 3031 3031 3032 3033 3034 3035 3036 3037 3038 3038 3039 3040 3040 3040 3040 3040 3041 3041 3041 3042 3042 3042 3042 3043 3043 3043 3043 3043 3043 3043 3044 3044 3044 3044 3044 3045 3045 3045 3045 3046 3046 3046 3046 3046 3046 3046 3046 3046 3046 3045 3045 3044 3044 3043 3043 3043 3043 3042 3042 3042 3042 3041 3041 3041 3041
3012 3014 3015 3016 3017 3017 3018 3018 3019 3019 3020 3020 3021 3022 3023 3023 3024 3025 3026 3027 3028 3028 3029 3031 3032 3033 3033 3034 3035 3036 3036 3037 3038 3038 3038 3038 3038 3039 3039 3039 3040 3040 3040 3040 3040 3041 3041 3041 3041 3042 3042 3042 3042 3042 3042 3043 3043 3043 3043 3043 3044 3044 3044 3044 3044 3044 3044 3044 3044 3044 3043 3043 3043 3042 3042 3041 3041 3041 3040 3040 3040 3040 3040 3039 3039 3039
3009 3010 3012 3013 3013 3014 3014 3015 3016 3016 3017 3018 3018 3019 3020 3022 3022 3023 3024 3025 3026 3026 3028 3029 3030 3031 3032 3032 3033 3034 3034 3035 3036 3036 3036 3037 3037 3037 3037 3037 3038 3038 3038 3038 3038 3039 3039 3039 3039 3039 3040 3040 3040 3040 3041 3041 3041 3041 3042 3042 3042 3043 3043 3043 3043 3043 3043 3043 3042 3042 3041 3041 3041 3040 3040 3039 3039 3039 3038 3038 3038 3038 3038 3038 3037 3037
3006 3007 3008 3009 3010 3010 3011 3012 3013 3014 3014 3015 3017 3018 3018 3019 3020 3021 3022 3023 3023 3024 3026 3027 3028 3029 3030 3030 3031 3032 3033 3033 3033 3034 3034 3035 3035 3035 3035 3036 3036 3036 3037 3037 3037 3037 3037 3038 3038 3038 3038 3038 3038 3039 3039 3039 3039 3040 3040 3040 3041 3041 3041 3041 3041 3041 3041 3041 3040 3040 3039 3039 3039 3038 3038 3038 3037 3037 3037 3036 3036 3036 3036 3036 3035 3035
3002 3003 3004 3005 3007 3008 3008 3009 3010 3011 3012 3013 3014 3015 3016 3017 3018 3019 3020 3021 3022 3023 3024 3025 3026 3027 3028 3028 3029 3030 3031 3031 3032 3032 3033 3033 3033 3033 3034 3034 3034 3034 3035 3035 3035 3035 3036 3036 3036 3036 3036 3037 3037 3037 3037 3038 3038 3038 3038 3039 3039 3039 3039 3039 3039 3039 3039 3039 3038 3038 3038 3037 3037 3036 3036 3036 3035 3035 3035 3034 3034 3034 3034 3033 3033 3033
2999 3000 3001 3002 3003 3005 3006 3007 3008 3009 3010 3011 3012 3013 3014 3015 3016 3017 3018 3019 3020 3021 3022 3023 3024 3025 3026 3027 3028 3028 3028 3029 3030 3030 3031 3031 3031 3031 3032 3032 3032 3032 3033 3033 3033 3034 3034 3034 3034 3034 3035 3035 3035 3035 3036 3036 3036 3037 3037 3037 3037 3038 3038 3038 3037 3037 3037 3037 3036 3036 3036 3035 3035 3034 3034 3034 3033 3033 3033 3033 3032 3032 3032 3032 3031 3031
2995 2997 2998 2999 3001 3002 3003 3005 3006 3007 3008 3009 3010 3011 3012 3013 3014 3015 3016 3017 3018 3019 3020 3021 3022 3023 3024 3025 3026 3026 3027 3027 3028 3028 3029 3029 3029 3029 3030 3030 3030 3030 3031 3031 3032 3032 3032 3033 3033 3033 3033 3033 3034 3034 3034 3034 3034 3035 3035 3035 3036 3036 3036 3036 3035 3035 3035 3035 3034 3034 3034 3033 3033 3033 3032 3032 3032 3031 3031 3031 3030 3030 3030 3030 3029 3029
2992 2994 2995 2997 2998 3000 3001 3002 3003 3005 3006 3007 3008 3009 3010 3011 3012 3013 3014 3015 3016 3017 3018 3019 3020 3021 3022 3023 3024 3024 3024 3025 3026 3026 3027 3027 3027 3028 3028 3028 3028 3029 3029 3029 3030 3030 3031 3031 3031 3032 3032 3032 3032 3033 3033 3033 3033 3033 3033 3034 3034 3034 3034 3034 3033 3033 3033 3033 3033 3032 3032 3031 3031 3031 3030 3030 3030 3029 3029 3029 3028 3028 3028 3028 3028 3028
2989 2991 2993 2994 2996 2997 2998 3000 3001 3002 3003 3005 3006 3007 3008 3009 3010 3011 3012 3013 3014 3015 3016 3018 3018 3019 3020 3021 3022 3022 3023 3023 3023 3024 3024 3025 3025 3026 3026 3026 3027 3027 3027 3028 3028 3028 3029 3029 3029 3030 3030 3030 3030 3031 3031 3031 3031 3031 3032 3032 3032 3032 3032 3032 3031 3031 3031 3031 3030 3030 3030 3029 3029 3029 3028 3028 3028 3028 3027 3027 3027 3026 3026 3026 3026 3025
2987 2989 2990 2992 2993 2995 2996 2998 2999 3000 3001 3003 3004 3005 3006 3007 3008 3009 3010 3011 3013 3013 3014 3016 3017 3018 3018 3019 3020 3020 3021 3021 3021 3022 3022 3023 3023 3024 3024 3024 3025 3025 3026 3026 3026 3027 3027 3028 3028 3028 3028 3029 3029 3029 3029 3029 3029 3030 3030 3030 3030 3030 3030 3029 3029 3029 3029 3028 3028 3028 3028 3028 3027 3027 3027 3027 3026 3026 3026 3025 3025 3024 3024 3024 3023 3023
2985 2986 2988 2990 2991 2993 2994 2996 2997 2998 2999 3001 3002 3003 3004 3005 3006 3008 3008 3009 3011 3012 3013 3014 3015 3015 3016 3017 3018 3018 3018 3019 3019 3020 3020 3021 3021 3022 3022 3023 3023 3023 3024 3024 3024 3025 3025 3026 3026 3026 3026 3027 3027 3027 3027 3027 3028 3028 3028 3028 3028 3028 3028 3027 3027 3027 3027 3027 3026 3026 3026 3026 3025 3025 3025 3025 3024 3024 3024 3023 3023 3023 3022 3022 3022 3022
2982 2984 2986 2988 2989 2991 2992 2993 2995 2996 2998 2999 3000 3001 3003 3004 3005 3006 3007 3008 3009 3010 3011 3012 3013 3013 3014 3015 3016 3016 3017 3017 3018 3018 3018 3019 3019 3020 3020 3021 3021 3022 3022 3023 3023 3023 3023 3023 3024 3024 3024 3024 3025 3025 3025 3025 3025 3025 3026 3026 3026 3026 3026 3025 3025 3025 3025 3024 3024 3024 3024 3024 3023 3023 3023 3023 3023 3022 3022 3022 3021 3021 3020 3020 3020 3019
2980 2982 2984 2985 2987 2988 2990 2992 2993 2995 2996 2997 2998 3000 3001 3002 3003 3004 3005 3006 3007 3008 3009 3010 3011 3012 3013 3013 3014 3014 3015 3015 3016 3016 3016 3017 3017 3018 3018 3019 3019 3020 3020 3021 3021 3021 3021 3022 3022 3022 3022 3022 3022 3023 3023 3023 3023 3023 3023 3023 3023 3023 3023 3023 3023 3023 3023 3023 3022 3022 3022 3022 3021 3021 3021 3021 3021 3020 3020 3020 3020 3019 3019 3018 3018 3018
2978 2980 2982 2983 2985 2987 2988 2990 2992 2993 2994 2995 2997 2998 2999 3000 3002 3003 3003 3004 3005 3006 3007 3008 3009 3010 3010 3011 3012 3012 3013 3013 3013 3014 3014 3015 3015 3016 3016 3017 3017 3018 3018 3018 3019 3019 3019 3019 3020 3020 3020 3020 3020 3020 3021 3021 3021 3021 3021 3020 3021 3021 3021 3021 3021 3021 3020 3020 3020 3020 3020 3019 3019 3019 3019 3019 3019 3018 3018 3018 3018 3018 3017 3017 3016 3016
2976 2978 2980 2982 2983 2985 2987 2988 2990 2991 2993 2994 2995 2997 2998 2999 3000 3001 3002 3003 3003 3004 3005 3006 3007 3008 3008 3009 3010 3010 3011 3011 3011 3012 3012 3013 3013 3013 3014 3014 3015 3016 3016 3016 3017 3017 3018 3018 3018 3018 3018 3018 3018 3018 3018 3019 3019 3018 3018 3018 3018 3018 3018 3019 3019 3019 3018 3018 3018 3018 3018 3018 3017 3017 3017 3017 3017 3017 3017 3016 3016 3016 3015 3015 3014 3014
2975 2977 2978 2980 2982 2984 2985 2987 2988 2990 2991 2993 2994 2995 2996 2997 2998 2999 3000 3001 3002 3003 3003 3004 3005 3006 3006 3007 3008 3008 3008 3009 3009 3010 3010 3010 3011 3011 3012 3013 3013 3013 3014 3014 3015 3015 3015 3016 3016 3016 3016 3016 3016 3016 3016 3017 3017 3016 3016 3016 3016 3016 3016 3016 3016 3016 3016 3016 3016 3016 3016 3015 3015 3015 3015 3015 3015 3015 3015 3014 3014 3014 3013 3013 3013 3012
2973 2975 2977 2978 2980 2982 2984 2985 2987 2988 2989 2991 2992 2993 2994 2996 2997 2998 2998 2999 3000 3001 3002 3002 3003 3004 3004 3005 3006 3006 3006 3007 3007 3007 3008 3008 3009 3009 3010 3010 3011 3011 3012 3012 3013 3013 3013 3013 3013 3013 3013 3013 3014 3014 3014 3014 3014 3014 3014 3014 3014 3014 3013 3014 3014 3014 3014 3014 3014 3013 3013 3013 3013 3013 3013 3013 3013 3013 3013 3013 3012 3012 3012 3011 3011 3010
2972 2973 2975 2977 2979 2980 2982 2983 2985 2986 2988 2989 2990 2992 2993 2994 2995 2996 2997 2997 2998 2999 3000 3000 3001 3002 3002 3003 3003 3004 3004 3004 3005 3005 3006 3006 3007 3007 3008 3008 3008 3009 3009 3010 3010 3010 3011 3011 3011 3011 3011 3012 3011 3012 3012 3012 3012 3012 3012 3012 3012 3012 3012 3012 3012 3012 3012 3011 3011 3011 3011 3011 3010 3010 3010 3010 3010 3011 3010 3010 3010 3010 3009 3009 3009 3008
2970 2972 2974 2975 2977 2978 2980 2982 2983 2984 2986 2987 2988 2989 2991 2992 2993 2994 2995 2995 2996 2997 2998 2998 2999 2999 3000 3001 3001 3001 3002 3002 3003 3003 3003 3004 3004 3005 3005 3006 3006 3007 3007 3008 3008 3008 3008 3008 3009 3009 3009 3009 3009 3009 3009 3009 3009 3009 3009 3010 3010 3009 3009 3009 3009 3009 3009 3009 3009 3008 3008 3008 3008 3008 3008 3008 3008 3008 3008 3008 3008 3008 3008 3007 3007 3007
2969 2971 2972 2974 2975 2977 2978 2980 2981 2983 2984 2985 2986 2988 2989 2990 2991 2992 2993 2993 2994 2994 2995 2996 2997 2997 2998 2998 2999 2999 3000 3000 3000 3001 3001 3002 3002 3003 3003 3003 3004 3004 3005 3005 3005 3006 3006 3006 3006 3007 3007 3007 3007 3007 3007 3007 3007 3007 3007 3007 3007 3007 3007 3007 3007 3007 3007 3006 3006 3006 3006 3006 3006 3006 3005 3006 3006 3006 3006 3006 3006 3006 3005 3005 3005 3005
2968 2969 2971 2972 2973 2975 2977 2978 2979 2980 2982 2983 2984 2985 2987 2988 2989 2989 2990 2991 2992 2992 2993 2994 2994 2995 2995 2996 2997 2997 2998 2998 2998 2998 2999 3000 3000 3000 3001 3001 3002 3002 3002 3003 3003 3003 3003 3003 3004 3004 3004 3004 3004 3004 3004 3004 3004 3004 3004 3004 3005 3005 3005 3004 3004 3004 3004 3004 3004 3003 3003 3003 3003 3003 3003 3003 3003 3003 3004 3004 3003 3003 3003 3003 3003 3003
2966 2968 2969 2970 2972 2973 2975 2976 2977 2978 2980 2981 2982 2983 2984 2986 2987 2987 2988 2988 2989 2990 2990 2991 2992 2993 2993 2993 2994 2995 2995 2996 2996 2996 2997 2997 2998 2998 2999 2999 2999 3000 3000 3000 3001 3001 3001 3001 3001 3001 3002 3002 3002 3002 3002 3002 3002 3002 3002 3002 3002 3002 3002 3002 3002 3002 3002 3002 3002 3001 3001 3001 3001 3001 3000 3000 3000 3001 3001 3001 3001 3001 3001 3001 3001 3000
2964 2966 2967 2969 2970 2972 2973 2974 2975 2977 2978 2979 2980 2981 2982 2983 2984 2985 2986 2986 2987 2988 2988 2989 2990 2990 2991 2991 2992 2992 2993 2993 2994 2994 2995 2995 2996 2996 2996 2997 2997 2998 2998 2998 2998 2998 2998 2998 2998 2999 2999 2999 2999 2999 2999 2999 2999 3000 2999 2999 2999 2999 2999 2999 2999 2999 2999 2999 2999 2999 2999 2999 2998 2998 2998 2998 2998 2998 2998 2998 2999 2999 2998 2998 2998 2998
2963 2964 2966 2967 2968 2970 2971 2972 2973 2974 2976 2977 2978 2979 2980 2981 2982 2983 2983 2984 2984 2985 2986 2986 2987 2988 2988 2989 2989 2990 2991 2991 2992 2992 2993 2993 2993 2994 2994 2994 2995 2995 2995 2996 2996 2996 2996 2996 2996 2996 2996 2997 2997 2997 2996 2996 2997 2997 2997 2997 2997 2997 2997 2997 2997 2997 2997 2997 2997 2997 2997 2997 2996 2996 2996 2995 2995 2995 2995 2996 2996 2996 2996 2996 2996 2996